Starlink 6231

operational
NORAD ID: 56779 Int'l Des: 2023-078 Owner: SPXS Country: US Constellation: starlink
LEOCIRCULAR

Starlink 6231について

説明を読み込み中...

リアルタイム位置

3D地球を読み込み中...

次回通過

高度履歴

Altitude vs Time

uPlot chart will show altitude changes over time

軌道要素

1 56779U 23078N 25352.91179636 -.00000240 00000-0 -12298-4 0 9997
2 56779 69.9986 168.1300 0003042 271.2332 88.8478 14.98323548141063
Epoch: Dec 18, 2025 • Age: 7 hours

現在のステータス

高度 574.2 km
速度 7.57 km/s
衛星直下点 6.84°N, 179.07°W
打ち上げ日 May 31, 2023
運用期間 2.5 years
タイプ internet

技術仕様

分類 Payload
質量 305.00 kg
乾燥質量 290.00 kg
総質量 305.00 kg
長さ 0.20 m
直径 2.80 m
スパン 9.00 m
形状 Box + pan
製造者 SPXS
バスタイプ Starlink
フェーズステータス In Orbit
所有者/国 SPXS/US

大規模コンステレーション

Loading constellations...